[[{"header":{"parameterUnit":"m.s-1","parameterCategory":1,"la1":30.2991,"la2":30.254,"lo1":-89.0895,"lo2":-89.0444,"dy":0.0017,"dx":0.0017,"nx":28,"ny":28,"refTime":"2025-06-17T21:00:00:Z","depth":0,"parameterNumber":2,"parameterNumberName":"U-component_of_WINDS"},"data":[0,0,0,0,0,0,0,0,0,0,0,0,0,0,0,0,0,0,0,0,0,0,0,0,0,0,0,0,0,0,0,0,0,0,0,0,0,0,0,0,0,0,0,0,0,0,0,0,0,0,0,0,0,0,0,0,0,0,0.8627,0.8628,0,0.8682,0.8683,0.8684,0.8717,0.8717,0.8717,0.8717,0.8774,0.8775,0.8777,0,0,0,0,0,0,0,0,0,0,0,0,0,0.8549,0.855,0.8627,0.8628,0.8629,0.8682,0.8683,0.8684,0.8717,0.8717,0.8717,0.8717,0.8774,0.8775,0.8777,0,0,0,0,0,0,0,0,0,0,0,0,0,0.8591,0.8551,0.8627,0.8651,0.8654,0.8682,0.8683,0.8684,0.8717,0.8717,0.8717,0.8717,0.8773,0.8775,0.8777,0.8785,0,0,0.8783,0.8784,0,0,0,0,0,0,0,0,0.8589,0.8594,0.8647,0.865,0.8653,0.8693,0.8676,0.8718,0.8717,0.8693,0.8717,0.8718,0.8747,0.8751,0.8761,0.8788,0.879,0.8783,0.8785,0.8786,0.8786,0,0,0,0,0,0,0,0.8586,0.8592,0.8649,0.8648,0.8651,0.8659,0.8666,0.8684,0.8718,0.8695,0.8698,0.8704,0.8748,0.8759,0.8762,0.8791,0.8783,0.8785,0.8786,0.8787,0.8825,0.8825,0,0,0,0,0,0,0.8579,0.8589,0.8647,0.8651,0.8621,0.866,0.8668,0.868,0.8718,0.8724,0.8703,0.8705,0.8755,0.876,0.8765,0.8776,0.8786,0.8787,0.8789,0.8826,0.8825,0.8825,0,0,0,0,0,0,0.8578,0.8584,0.8645,0.8621,0.8629,0.8662,0.8675,0.8681,0.8691,0.8724,0.873,0.8708,0.8756,0.8762,0.8779,0.8778,0.8788,0.879,0.8826,0.8825,0.8825,0.8798,0,0,0,0,0,0,0.8575,0.8583,0.8587,0.8621,0.863,0.8659,0.8675,0.8682,0.8695,0.8697,0.873,0.8736,0.8756,0.8776,0.8781,0.8781,0.8792,0.8826,0.8826,0.8825,0.8799,0.8797,0.8795,0,0,0,0,0,0.8572,0.8578,0.8587,0.8594,0.8636,0.8659,0.8665,0.8688,0.8695,0.8698,0.8719,0.8735,0.8777,0.8778,0.8784,0.8784,0.8826,0.8826,0.8825,0.88,0.8797,0.8795,0,0,0,0,0,0,0.8544,0.8583,0.8594,0.861,0.8631,0.8665,0.867,0.8685,0.8704,0.8706,0.8734,0.8741,0.8756,0.8772,0.8771,0.8793,0.8803,0.8804,0.8782,0.878,0.8777,0.8773,0.8794,0,0,0,0,0,0.8539,0.8555,0.8588,0.8599,0.8609,0.8638,0.8649,0.8665,0.8688,0.8697,0.8719,0.874,0.8758,0.877,0.8789,0.8801,0.8808,0.8804,0.8802,0.88,0.88,0.8807,0.8805,0.8823,0.8823,0.8823,0,0,0.853,0.8553,0.8562,0.8594,0.8612,0.8627,0.8645,0.8661,0.8672,0.8699,0.8717,0.8734,0.8759,0.8774,0.8782,0.8788,0.8797,0.88,0.8798,0.8799,0.8806,0.8805,0.8803,0.8823,0.8823,0.8823,0,0,0.8522,0.8541,0.8552,0.8569,0.8596,0.8615,0.8617,0.8649,0.8661,0.8679,0.8699,0.8713,0.8744,0.8761,0.8773,0.8769,0.8784,0.8774,0.8763,0.8769,0.8767,0.8766,0.8764,0.8763,0.8775,0.8774,0.8774,0,0.8507,0.8531,0.8556,0.857,0.8583,0.8608,0.8618,0.8634,0.8666,0.8674,0.868,0.8718,0.8738,0.8756,0.8755,0.8764,0.8767,0.8771,0.8766,0.8765,0.8764,0.8762,0.8761,0.8773,0.8773,0.8773,0.8774,0,0.8511,0.8528,0.8533,0.8562,0.8576,0.8589,0.8614,0.8625,0.864,0.8657,0.8675,0.8698,0.8721,0.8727,0.8742,0.8747,0.875,0.876,0.8771,0.8761,0.8759,0.8759,0.8771,0.8772,0.8772,0.8772,0,0,0.8488,0.8529,0.8531,0.8543,0.8574,0.8587,0.86,0.8622,0.863,0.8651,0.8662,0.8686,0.8696,0.871,0.8727,0.8732,0.8726,0.8742,0.8743,0.8738,0.8732,0.8723,0.8722,0.8736,0.8736,0.8736,0.873,0,0.8483,0.8508,0.8529,0.8546,0.856,0.8583,0.8594,0.8613,0.863,0.8644,0.8662,0.8679,0.8691,0.87,0.8706,0.8725,0.8725,0.8726,0.8746,0.8746,0.8738,0.8722,0.8713,0.8706,0.8729,0.8729,0.8729,0,0.8482,0.85,0.8518,0.8546,0.8553,0.8562,0.8583,0.8597,0.8619,0.8631,0.8646,0.8663,0.8676,0.8686,0.8704,0.8705,0.8714,0.8724,0.8724,0.8727,0.8737,0.8723,0.8705,0.8703,0.8729,0.8729,0.8729,0,0.8461,0.8491,0.8505,0.8516,0.8549,0.8554,0.8568,0.8591,0.8602,0.8621,0.8628,0.8648,0.8659,0.8673,0.8695,0.8699,0.8711,0.8722,0.872,0.8719,0.8721,0.8721,0.8704,0.8728,0.8728,0.8728,0.8728,0,0.8454,0.8464,0.8496,0.8505,0.8516,0.854,0.855,0.8566,0.8586,0.8597,0.8618,0.8628,0.8656,0.8669,0.8686,0.8698,0.8703,0.8713,0.8717,0.8711,0.8709,0.8717,0.8718,0.8728,0.8728,0.8728,0.8728,0,0.8434,0.8456,0.8472,0.8502,0.8509,0.8516,0.8541,0.855,0.8566,0.8581,0.8585,0.8612,0.8629,0.8651,0.8675,0.8686,0.8696,0.8703,0.8689,0.8691,0.8687,0.8687,0.8674,0.8673,0.8698,0.8698,0.8698,0,0.8427,0.8435,0.8465,0.8474,0.8487,0.8502,0.8513,0.8537,0.8547,0.8572,0.8578,0.8596,0.8611,0.8637,0.8658,0.8676,0.8683,0.8677,0.8686,0.8679,0.8682,0.8681,0.8682,0.8675,0.8675,0.8674,0.8674,0,0.8414,0.8424,0.844,0.8458,0.8471,0.8488,0.8505,0.8511,0.8538,0.8549,0.8566,0.8578,0.8601,0.8619,0.8639,0.8653,0.8668,0.8671,0.8671,0.8665,0.8656,0.866,0.8682,0.8671,0.8672,0.8672,0.8672,0.8672,0.84,0.8407,0.8429,0.8445,0.846,0.8475,0.8484,0.8502,0.8517,0.8537,0.855,0.8566,0.8587,0.8615,0.8628,0.8641,0.8647,0.8648,0.8648,0.8647,0.8645,0.8654,0.8645,0.8645,0.8645,0.8645,0.8645,0,0.8387,0.8401,0.8416,0.8439,0.8451,0.8463,0.8482,0.8492,0.8506,0.8523,0.8538,0.8557,0.8573,0.8595,0.8612,0.8618,0.8625,0.8622,0.8622,0.8624,0.8639,0.8636,0.8616,0.8616,0.8616,0.8616,0.8616,0.8616,0.8381,0.8394,0.8406,0.8426,0.8441,0.8456,0.8466,0.848,0.8494,0.8513,0.8527,0.8541,0.856,0.8579,0.8594,0.86,0.8605,0.86,0.8607,0.8621,0.8623,0.8626,0.8624,0.8601,0.8601,0.8592,0.8592,0.8592]},{"header":{"parameterUnit":"m.s-1","parameterCategory":1,"la1":30.2991,"la2":30.254,"lo1":-89.0895,"lo2":-89.0444,"dy":0.0017,"dx":0.0017,"nx":28,"ny":28,"refTime":"2025-06-17T21:00:00:Z","depth":0,"parameterNumber":3,"parameterNumberName":"V-component_of_WINDS"},"data":[0,0,0,0,0,0,0,0,0,0,0,0,0,0,0,0,0,0,0,0,0,0,0,0,0,0,0,0,0,0,0,0,0,0,0,0,0,0,0,0,0,0,0,0,0,0,0,0,0,0,0,0,0,0,0,0,0,0,1.7519,1.752,0,1.7591,1.7592,1.7593,1.7653,1.7654,1.7655,1.7655,1.7727,1.7728,1.773,0,0,0,0,0,0,0,0,0,0,0,0,0,1.743,1.7432,1.7519,1.752,1.7521,1.7591,1.7592,1.7593,1.7653,1.7654,1.7655,1.7656,1.7727,1.7728,1.773,0,0,0,0,0,0,0,0,0,0,0,0,0,1.7482,1.7432,1.7519,1.7559,1.7564,1.7591,1.7592,1.7594,1.7653,1.7654,1.7655,1.7656,1.7726,1.7728,1.773,1.7722,0,0,1.7736,1.7737,0,0,0,0,0,0,0,0,1.7479,1.7486,1.7552,1.7557,1.7561,1.7615,1.7588,1.7637,1.7653,1.7619,1.7655,1.7657,1.7689,1.7694,1.7705,1.7726,1.7729,1.7736,1.7737,1.7738,1.7739,0,0,0,0,0,0,0,1.7476,1.7483,1.7548,1.7553,1.7559,1.7573,1.7582,1.7597,1.7647,1.7622,1.7627,1.7635,1.7691,1.7703,1.7707,1.773,1.7736,1.7738,1.7739,1.774,1.7748,1.7747,0,0,0,0,0,0,1.7466,1.7479,1.7545,1.755,1.7522,1.7574,1.7583,1.7596,1.7647,1.7656,1.7634,1.7637,1.7699,1.7705,1.771,1.7705,1.7738,1.774,1.7741,1.7749,1.7748,1.7747,0,0,0,0,0,0,1.7464,1.7471,1.7542,1.7516,1.7526,1.7574,1.7589,1.7597,1.7609,1.7656,1.7665,1.7637,1.77,1.7707,1.7719,1.7708,1.7741,1.7743,1.775,1.7749,1.7748,1.7694,0,0,0,0,0,0,1.7461,1.747,1.7468,1.7515,1.7527,1.7551,1.7588,1.7598,1.7613,1.7618,1.7661,1.7669,1.7702,1.7716,1.7721,1.7711,1.7744,1.7751,1.775,1.7748,1.7697,1.7691,1.7686,0,0,0,0,0,1.7458,1.745,1.7468,1.7476,1.7526,1.755,1.7557,1.7595,1.7612,1.761,1.764,1.7668,1.7708,1.7717,1.7723,1.7714,1.7752,1.775,1.7748,1.77,1.7692,1.7686,0,0,0,0,0,0,1.7399,1.7457,1.7477,1.7484,1.7512,1.756,1.7559,1.7585,1.7608,1.7612,1.7657,1.7666,1.7673,1.7695,1.7703,1.7709,1.7734,1.7733,1.7695,1.7689,1.7683,1.7678,1.7746,0,0,0,0,0,1.7387,1.7403,1.7452,1.7453,1.7466,1.751,1.7522,1.7549,1.7579,1.759,1.7622,1.7649,1.7668,1.7679,1.7699,1.7701,1.7711,1.7697,1.7692,1.7687,1.7686,1.7688,1.7683,1.774,1.774,1.774,0,0,1.7362,1.7395,1.7402,1.7442,1.7467,1.7481,1.7519,1.7533,1.7544,1.7592,1.7606,1.7629,1.7663,1.7669,1.7674,1.7688,1.7672,1.7684,1.768,1.7681,1.7685,1.768,1.7675,1.7739,1.7739,1.7739,0,0,1.7324,1.7351,1.7356,1.738,1.7417,1.7446,1.7447,1.7492,1.7509,1.7524,1.7561,1.7574,1.7606,1.7628,1.7644,1.7615,1.7642,1.762,1.7591,1.7593,1.7588,1.7585,1.7575,1.757,1.7619,1.7618,1.7618,0,1.7288,1.7313,1.7354,1.7366,1.7383,1.7428,1.7433,1.7454,1.7495,1.7505,1.752,1.7561,1.7586,1.7599,1.7592,1.7603,1.7606,1.7615,1.7586,1.7582,1.758,1.757,1.7567,1.7616,1.7616,1.7616,1.7617,0,1.7267,1.7283,1.7282,1.7322,1.7338,1.7346,1.7389,1.74,1.7425,1.7453,1.7467,1.75,1.7527,1.7532,1.7557,1.7548,1.7556,1.7578,1.7603,1.7571,1.7563,1.756,1.7612,1.7613,1.7613,1.7614,0,0,1.7193,1.7257,1.7256,1.7275,1.7319,1.7332,1.7342,1.7371,1.7379,1.7406,1.7416,1.7442,1.7462,1.748,1.7507,1.7509,1.7485,1.7531,1.7532,1.7521,1.7478,1.7461,1.7456,1.7503,1.7502,1.7502,1.7475,0,1.7163,1.7185,1.7223,1.7232,1.7247,1.7291,1.73,1.7327,1.7354,1.737,1.7398,1.7416,1.7442,1.7453,1.7457,1.7487,1.7476,1.7489,1.7511,1.7512,1.7502,1.7452,1.7435,1.7408,1.7472,1.7472,1.7471,0,1.713,1.7156,1.7167,1.7211,1.7219,1.7226,1.7255,1.7271,1.7303,1.7322,1.7342,1.7372,1.7384,1.7408,1.7426,1.7433,1.7445,1.7461,1.7461,1.7464,1.7489,1.7455,1.7401,1.7396,1.7467,1.7467,1.7468,0,1.7076,1.7113,1.7125,1.7139,1.7191,1.7195,1.7217,1.725,1.7265,1.729,1.73,1.7325,1.7339,1.7358,1.7395,1.7408,1.7408,1.7435,1.7424,1.7423,1.7422,1.7421,1.7369,1.7429,1.7429,1.7429,1.7429,0,1.7038,1.7043,1.7101,1.7108,1.7115,1.7159,1.7164,1.7189,1.7219,1.7231,1.727,1.7281,1.7328,1.7344,1.7372,1.7382,1.7388,1.7404,1.7411,1.74,1.7398,1.7408,1.7411,1.7428,1.7428,1.7428,1.7428,0,1.6978,1.7017,1.7033,1.7081,1.7094,1.7096,1.7137,1.7146,1.7174,1.7189,1.7195,1.724,1.7261,1.7299,1.733,1.7349,1.7354,1.7366,1.7343,1.7348,1.7335,1.7335,1.7287,1.7282,1.7344,1.7344,1.7343,0,1.6951,1.6956,1.7006,1.7017,1.7038,1.7056,1.7071,1.7114,1.7129,1.7166,1.717,1.7194,1.7216,1.7247,1.7281,1.7305,1.7319,1.7301,1.7323,1.7312,1.7319,1.7318,1.7319,1.7295,1.7294,1.7294,1.7293,0,1.6899,1.6919,1.6941,1.6969,1.6987,1.7011,1.7037,1.7044,1.7093,1.7107,1.7129,1.7146,1.7178,1.7202,1.7231,1.7253,1.7281,1.7286,1.7285,1.7274,1.726,1.7267,1.7329,1.7287,1.7287,1.7288,1.7288,1.7288,1.6856,1.6863,1.6899,1.6921,1.6946,1.6969,1.698,1.701,1.703,1.7061,1.7085,1.7105,1.7138,1.718,1.72,1.7216,1.7229,1.7227,1.7227,1.7226,1.7222,1.7257,1.7221,1.7222,1.7222,1.7222,1.7222,0,1.6806,1.6832,1.6852,1.6888,1.6906,1.6932,1.6963,1.6975,1.6994,1.7022,1.7043,1.7069,1.7092,1.7128,1.7154,1.716,1.7173,1.7165,1.7165,1.717,1.7208,1.7207,1.7154,1.7154,1.7154,1.7154,1.7154,1.7154,1.6782,1.6796,1.6819,1.6845,1.6871,1.6892,1.6907,1.6929,1.6952,1.6979,1.6999,1.7023,1.7055,1.7084,1.7106,1.7116,1.7124,1.7111,1.7125,1.7161,1.7167,1.7173,1.7172,1.7112,1.7112,1.7086,1.7085,1.7085]}]]